Home   Weather   Prescott   Past weeks

Flag for USA Past Weather in Prescott, Arizona, USA — Yesterday and Last 2 Weeks

Now
34 °F

Clear.


Feels Like: 34 °F
Forecast: 34 / 40 °F
Wind: No wind

Location: Love Field

Current Time: Jan 19, 2017 at 1:56:24 am

Latest Report: Jan 19, 2017 at 12:53 am


Visibility: 9 mi

Pressure: 29.96 "Hg (24.43 "Hg at 1635m altitude)

Humidity: 88%

Dew Point: 31 °F

Location of PrescottLocation

Past Weather in Prescott — Graph

°F

Prescott Temperature Yesterday

Maximum temperature yesterday: 52 °F (at 1:53 pm)
Minimum temperature yesterday: 28 °F (at 4:53 am)
Average temperature yesterday: 39 °F

High & Low Weather Summary for the Past Weeks

 TemperatureHumidityPressure
High63 °F (Jan 8, 3:53 pm)100% (Jan 14, 11:08 pm)30.38 "Hg (Jan 14, 11:08 pm)
Low23 °F (Jan 7, 4:53 am)26% (Jan 6, 3:53 pm)29.69 "Hg (Jan 6, 12:53 am)
Average42 °F73%30.01 "Hg
* Reported Jan 3 11:53 pm — Jan 18 11:53 pm, Prescott, Weather by CustomWeather, © 2017

Note: Actual official high and low records may vary slightly from our data, if they occured in-between our weather recording intervals... More about our weather records

Advertising

Prescott Weather History for the Previous 24 Hours

Scroll right to see more
 ConditionsComfort  
Time TempWeatherWind HumidityBarometerVisibility
11:53 pm
Wed, Jan 18
36 °FClear.No wind89%29.97 "Hg9 mi
10:53 pm38 °FClear.No wind83%29.99 "Hg10 mi
9:53 pm38 °FClear.7 mph86%30.01 "Hg10 mi
8:53 pm39 °FClear.7 mph79%30.05 "Hg10 mi
7:53 pm41 °FClear.7 mph67%30.05 "Hg10 mi
6:53 pm42 °FClear.7 mph65%30.03 "Hg10 mi
5:53 pm46 °FPassing clouds.9 mph51%30.01 "Hg10 mi
4:53 pm50 °FPassing clouds.10 mph43%29.99 "Hg10 mi
3:53 pm52 °FSunny.12 mph40%29.98 "Hg10 mi
2:53 pm52 °FPassing clouds.13 mph38%29.99 "Hg10 mi
1:53 pm52 °FPassing clouds.8 mph40%30.01 "Hg10 mi
12:53 pm51 °FPassing clouds.12 mph44%30.05 "Hg10 mi
11:53 am51 °FSunny.3 mph50%30.07 "Hg10 mi
10:53 am45 °FSunny.3 mph63%30.13 "Hg10 mi
9:53 am39 °FSunny.No wind76%30.14 "Hg10 mi
8:53 am34 °FSunny.No wind82%30.14 "Hg10 mi
7:53 am29 °FSunny.No wind89%30.15 "Hg10 mi
6:53 am28 °FClear.3 mph93%30.13 "Hg10 mi
5:53 am28 °FClear.3 mph93%30.11 "Hg10 mi
4:53 am28 °FClear.No wind93%30.09 "Hg10 mi
3:53 am30 °FClear.5 mph89%30.09 "Hg10 mi
2:53 am29 °FClear.5 mph93%30.10 "Hg10 mi
1:53 am31 °FClear.5 mph89%30.11 "Hg10 mi
Weather by CustomWeather, © 2017

See weather overviewHow to use our weather pages